GFSSGP_850_thetae_333.txt.gz
Theta_e
336 335 340 341 343 337 337 336 337 338 338 337 336 336 336 334 337 340 335 333 336 338 344 338 327 327 328 328 328 329 330 329 330 334 336 330 330 331 333 330 326 321 320 320 320 321 321 322 323
341 340 341 341 338 338 337 334 335 337 336 335 334 333 336 339 335 335 334 336 337 339 341 341 327 328 328 329 329 329 329 330 335 337 332 330 330 330 331 332 332 332 331 324 320 321 321 321 322
338 340 343 341 339 339 339 334 332 332 332 333 336 337 339 337 336 336 336 337 339 339 341 339 331 329 325 327 328 328 328 331 337 338 333 332 331 331 330 331 331 332 333 334 332 325 321 321 322
342 343 341 340 340 338 338 336 334 334 333 334 335 338 338 338 338 337 337 338 340 344 346 345 339 340 338 325 328 330 331 331 336 338 334 332 332 331 331 331 330 330 330 331 333 332 331 326 321
341 341 340 340 340 338 338 337 335 336 336 337 338 340 339 336 335 338 339 341 343 343 344 346 340 334 340 336 340 339 338 337 335 338 336 335 334 334 334 331 330 330 329 331 332 332 332 332 330
337 339 343 341 340 339 338 336 336 337 338 338 340 342 343 341 341 341 342 342 342 341 342 342 342 338 338 337 338 339 339 338 338 337 336 334 332 329 328 328 326 330 331 331 331 331 332 332 332
334 338 340 340 341 340 339 338 338 338 339 340 340 343 342 343 342 343 342 341 340 339 339 338 337 338 340 341 336 335 336 338 338 336 335 330 329 328 326 324 323 323 328 329 329 329 328 328 328
332 339 340 340 342 341 339 339 339 339 339 338 340 344 343 343 343 341 339 338 334 331 328 328 329 330 333 337 334 334 334 335 333 331 329 328 329 326 324 323 318 317 318 319 320 321 324 325 326
332 339 341 341 341 341 339 341 340 339 340 340 340 340 341 343 342 340 338 332 328 325 323 323 325 328 330 332 334 335 332 330 329 328 327 327 325 324 319 318 316 313 312 311 313 313 312 316 319
332 339 338 339 340 339 339 340 340 341 341 341 341 342 341 341 339 334 329 325 324 323 322 323 325 328 329 329 330 330 329 328 327 325 322 323 321 320 319 319 319 319 318 319 318 320 323 325 326
338 340 339 340 339 340 341 340 340 341 343 342 342 342 341 338 331 327 325 324 323 322 322 324 327 330 330 329 328 327 326 326 325 324 319 320 320 320 320 320 320 321 320 321 320 320 320 322 324
338 339 339 340 340 340 340 339 340 342 341 342 342 341 337 331 327 327 325 324 323 322 322 324 327 329 329 328 326 326 325 324 323 322 321 321 321 321 321 321 322 321 321 321 321 321 321 321 321
340 341 340 340 340 339 340 342 343 342 342 343 343 339 334 329 328 328 327 326 324 323 322 322 325 327 327 326 326 325 324 323 322 321 321 322 322 322 322 322 321 320 319 320 320 320 321 321 320
340 340 340 340 339 339 342 342 342 341 342 343 342 339 333 330 329 329 328 328 326 325 323 321 322 324 325 325 324 324 323 321 321 321 321 322 322 321 321 320 320 320 320 320 320 320 320 321 320
340 342 341 339 338 339 340 342 344 341 342 342 342 340 335 331 331 331 330 330 327 326 324 321 321 322 323 323 322 322 321 321 321 321 322 321 321 320 321 320 320 320 320 320 320 320 320 320 320
343 343 347 341 338 339 341 348 343 342 342 342 342 341 338 333 332 331 331 330 328 326 325 322 320 321 322 322 322 322 321 321 320 321 321 320 320 319 320 320 320 320 320 320 319 319 320 320 320
344 342 337 343 340 342 341 344 343 340 342 341 341 341 340 338 335 333 331 330 328 327 325 322 320 321 322 323 322 321 321 320 321 321 320 320 319 319 320 320 320 320 320 319 317 318 319 320 319
337 333 336 339 342 341 343 343 343 340 340 341 340 341 339 339 337 335 332 331 329 328 326 323 320 312 321 321 320 320 321 320 321 321 320 319 319 319 319 319 319 318 319 318 316 316 318 319 319
333 334 336 337 342 342 342 342 343 341 340 339 341 340 338 338 338 337 334 332 331 330 327 323 321 313 321 320 320 320 320 320 321 320 320 320 319 319 319 318 318 317 318 318 315 315 316 317 317
334 336 337 339 340 341 343 342 342 341 340 339 340 339 338 338 338 339 335 334 332 331 327 325 321 313 319 321 321 322 321 321 320 320 320 320 319 318 317 317 317 316 318 317 315 314 315 315 316
335 334 335 335 338 341 340 343 343 341 339 340 339 340 338 338 338 339 336 336 333 332 329 325 322 320 313 319 321 322 322 322 320 320 320 320 319 318 317 317 317 315 317 315 313 314 313 313 315
340 335 335 337 339 340 337 335 346 344 343 341 340 338 338 337 336 338 335 336 334 332 329 325 323 320 319 313 322 322 322 321 321 320 320 319 319 318 317 317 316 316 316 314 313 313 313 313 313
335 335 337 337 339 340 343 334 345 343 343 342 340 338 337 337 336 337 333 334 334 332 329 325 324 323 321 320 319 322 322 321 321 320 320 319 319 318 317 316 316 316 315 314 313 312 312 313 313
336 338 341 341 343 344 340 334 340 342 338 337 339 337 336 336 337 337 335 334 334 331 328 325 324 323 322 321 322 322 322 321 321 320 320 319 318 318 317 316 316 316 315 315 313 313 312 313 312
336 340 344 342 346 340 338 334 336 337 336 335 336 337 336 336 337 338 336 335 333 332 329 325 324 323 322 321 321 322 321 321 321 321 320 320 318 318 318 317 316 315 314 315 314 315 313 312 313
337 337 340 340 337 336 342 336 336 335 334 336 335 336 337 336 336 338 337 335 333 332 330 326 324 323 322 321 321 321 321 321 322 321 320 321 318 318 318 316 316 316 315 315 314 315 314 312 313
338 338 336 338 339 338 339 336 338 337 337 336 337 336 337 337 337 337 337 336 332 333 331 326 323 323 322 321 321 322 321 321 320 320 319 320 319 318 318 317 316 316 316 316 315 314 314 314 313
335 335 335 337 337 337 335 337 337 335 336 338 338 337 336 338 337 337 336 336 333 332 331 327 323 323 322 322 321 321 321 320 320 320 319 319 320 319 318 317 316 316 316 315 315 314 314 314 313
336 337 339 339 337 337 340 335 335 336 336 337 337 337 337 338 338 337 337 335 333 332 330 328 324 323 322 322 321 321 321 321 320 320 320 319 319 319 319 317 316 316 316 316 315 316 315 315 313
333 334 336 336 336 334 334 335 335 336 335 336 335 335 335 336 336 335 336 334 333 332 330 327 324 321 321 321 321 321 321 321 321 321 320 319 319 319 318 318 317 316 316 316 315 315 314 315 315

GFSSGP_850_thetae_336.txt.gz
Theta_e
336 338 341 342 347 342 336 339 337 338 336 336 336 336 335 334 338 339 333 335 338 343 343 332 327 328 329 329 329 328 329 330 332 336 334 330 330 329 329 330 331 332 332 332 325 321 321 321 322
341 342 342 339 342 337 336 336 337 337 335 335 336 336 337 338 335 334 336 337 338 342 345 333 329 327 326 327 329 329 329 328 332 337 334 331 330 330 330 329 330 331 331 332 334 333 326 321 322
338 343 342 346 341 339 335 333 334 333 334 336 337 338 337 335 335 336 337 339 342 341 339 340 339 339 338 326 327 329 330 330 334 337 336 332 332 332 332 332 331 331 330 330 330 331 333 331 324
342 337 342 348 341 339 338 336 334 334 334 336 337 337 338 338 338 338 339 341 345 345 342 342 340 332 338 337 333 338 338 336 334 337 337 336 334 334 334 331 327 327 327 328 328 329 331 332 332
340 337 342 340 339 339 338 336 336 338 338 339 338 338 336 337 339 340 341 342 342 343 344 343 342 337 337 338 337 338 339 339 337 337 337 335 333 330 328 327 325 323 322 330 331 331 331 331 332
338 336 346 343 340 339 339 338 338 339 339 340 342 341 339 341 342 342 342 341 341 340 339 337 339 337 336 339 336 334 335 337 338 337 335 332 329 327 326 325 323 321 320 322 328 330 330 329 329
336 339 340 342 343 342 340 339 339 340 341 342 338 343 343 341 342 340 340 337 334 331 329 329 336 336 337 337 334 330 330 335 334 331 329 326 329 327 325 322 321 314 311 313 316 319 324 327 328
336 340 340 340 342 340 339 339 338 338 343 342 336 337 342 342 340 339 336 332 328 326 324 325 326 329 339 337 333 333 330 328 328 328 327 327 328 327 319 321 318 317 316 313 314 313 312 316 314
334 340 341 342 342 341 340 340 340 340 340 341 340 341 342 342 340 336 330 326 325 323 323 325 327 329 331 333 332 332 330 328 327 324 319 323 322 321 320 320 320 320 320 320 320 319 322 324 326
337 339 340 339 340 341 340 340 341 341 341 342 342 341 341 339 332 327 325 324 324 323 324 327 330 330 331 329 329 328 328 327 326 324 318 320 321 321 321 321 322 321 321 322 321 321 321 321 324
339 340 338 338 340 340 340 339 341 342 342 342 341 341 338 331 327 326 325 324 323 323 324 326 329 330 331 329 328 327 326 325 324 322 318 320 322 321 322 322 322 321 321 321 321 321 321 321 321
338 338 338 339 340 339 340 340 341 342 343 342 342 339 333 328 328 327 326 324 324 323 322 326 327 328 327 328 327 326 325 324 323 322 319 320 323 319 323 322 321 321 320 320 320 320 320 321 321
337 338 339 339 339 340 341 342 343 342 343 343 341 336 331 329 328 328 328 327 326 324 323 323 325 326 325 325 326 325 324 322 322 323 318 322 322 318 322 321 321 321 320 320 321 320 320 321 321
338 339 339 339 339 341 342 342 342 343 343 343 340 337 332 330 330 329 329 328 327 321 321 322 323 319 324 323 324 323 322 322 322 322 322 322 320 319 320 321 320 319 321 320 320 320 320 320 321
341 338 336 339 339 342 342 343 342 343 343 342 340 339 333 332 332 332 332 330 328 325 318 319 321 322 320 323 323 322 322 322 321 322 322 318 320 318 320 321 320 320 321 321 320 319 320 320 320
339 340 344 340 340 340 337 341 342 342 342 341 341 340 336 333 333 332 333 331 329 324 323 319 316 322 324 323 323 323 321 321 322 322 321 317 320 319 320 320 320 320 321 319 316 316 318 320 321
339 346 345 342 339 341 341 346 344 342 342 341 341 340 339 337 335 334 332 331 330 328 325 321 318 321 324 322 322 322 321 322 322 322 320 318 320 319 318 319 319 318 320 319 317 314 317 319 319
336 341 342 342 340 339 342 346 345 341 341 341 341 342 340 339 337 336 332 332 331 330 327 323 316 316 323 321 321 321 322 321 322 322 320 320 320 319 318 318 319 316 319 318 316 314 316 318 317
336 336 338 337 338 335 339 342 346 342 340 341 340 342 338 339 338 337 334 333 333 332 329 323 320 314 323 321 322 321 322 322 322 321 321 321 319 318 318 317 317 316 319 317 313 315 314 316 316
336 337 336 338 339 336 341 339 345 343 341 340 341 340 339 339 341 338 335 334 333 333 330 326 320 313 318 323 323 323 322 322 321 321 321 321 319 318 318 317 315 315 317 316 313 313 313 313 315
334 336 336 336 335 339 341 341 342 343 342 340 340 340 338 338 341 340 337 335 335 334 332 326 321 317 313 323 323 323 323 323 322 321 321 321 320 319 317 317 317 314 317 316 313 312 313 312 313
337 335 336 338 340 343 339 340 345 344 342 341 340 340 340 339 339 341 338 336 335 334 332 327 323 318 321 315 324 323 323 322 323 321 320 320 320 319 318 317 316 315 316 315 313 313 312 313 312
334 334 337 339 342 342 341 342 346 345 345 343 341 340 338 338 338 339 338 336 336 334 332 328 323 323 317 316 315 323 321 322 322 321 321 319 319 319 318 315 315 315 314 315 313 312 313 312 313
334 337 340 340 342 349 342 341 344 344 339 335 341 340 338 338 337 338 336 335 335 333 330 327 326 324 322 322 323 323 322 319 321 320 322 319 319 319 318 314 315 316 314 314 314 315 312 312 312
337 341 342 346 344 347 341 339 340 335 334 333 335 339 338 336 337 338 336 335 334 333 331 328 327 325 324 322 323 323 321 322 322 323 321 321 319 319 319 315 316 315 316 315 315 316 313 312 313
336 337 341 341 339 340 339 339 340 337 336 335 334 335 338 337 336 338 337 336 335 333 332 329 325 324 324 323 323 323 322 321 322 322 318 320 320 319 319 317 317 316 316 315 315 315 315 314 312
337 339 338 340 339 339 337 339 338 338 338 337 336 335 336 337 337 339 338 336 334 333 333 330 325 325 324 323 322 322 323 321 321 320 319 319 320 319 319 318 318 315 316 315 315 314 314 314 313
334 335 339 339 343 343 339 339 339 339 336 337 337 337 336 337 338 337 337 336 333 334 333 331 326 325 324 323 323 322 322 322 321 321 321 320 319 319 318 318 318 316 316 316 315 315 314 314 315
336 337 342 340 339 341 336 338 338 341 339 339 336 337 337 337 338 337 338 336 333 333 333 331 326 324 324 323 322 322 322 322 322 321 321 320 319 319 319 317 318 317 316 316 315 315 314 314 315
335 338 339 341 342 340 340 338 337 340 338 334 335 335 336 337 337 338 338 336 334 333 332 331 327 324 323 323 323 323 322 322 322 322 322 321 320 319 320 319 317 318 317 315 316 315 315 314 315

GFSSGP_850_thetae_339.txt.gz
Theta_e
337 340 342 341 343 345 335 335 333 334 335 337 335 333 333 333 336 334 336 342 340 338 335 333 335 328 327 328 329 329 329 329 330 335 335 331 329 329 329 329 330 330 331 331 332 333 335 327 321
342 341 342 341 340 335 332 334 333 334 336 336 335 335 336 334 334 336 337 338 340 340 335 335 338 337 338 328 327 329 330 330 331 336 337 333 332 332 332 331 331 331 330 330 330 329 332 337 337
340 341 339 342 344 328 330 333 333 334 337 337 339 337 334 335 335 336 338 340 340 337 338 338 339 334 335 337 331 333 336 335 334 335 337 335 334 333 333 332 329 326 324 324 327 328 328 329 332
337 338 340 343 342 335 331 332 334 335 335 337 337 338 338 338 338 340 342 343 341 341 341 339 339 335 336 336 334 335 337 338 337 336 336 335 333 330 328 327 325 324 322 320 323 330 330 330 331
334 336 341 343 341 338 336 337 339 341 340 337 336 337 338 339 340 340 342 341 338 340 340 336 339 335 336 338 335 332 333 335 336 336 335 332 328 326 325 322 320 317 313 315 318 324 329 330 329
335 336 341 342 341 339 337 340 341 342 340 339 339 337 339 341 342 341 339 333 330 330 338 332 337 333 334 335 332 330 330 334 335 332 328 326 328 325 322 319 318 316 310 309 310 312 315 321 326
335 337 341 340 341 341 338 341 342 341 341 340 341 343 342 341 341 337 335 331 328 326 325 326 329 332 337 335 332 331 329 328 328 327 326 324 327 325 319 320 320 319 318 318 317 320 321 323 320
336 338 342 340 338 342 338 340 340 341 340 339 342 342 341 342 335 333 329 327 324 323 322 324 328 332 338 333 332 329 328 327 324 320 325 323 322 320 319 320 321 320 321 321 320 320 320 322 325
335 339 342 341 340 339 339 340 341 338 340 339 338 341 341 338 332 325 324 324 323 323 324 325 325 331 338 329 330 328 327 326 324 319 316 320 321 320 322 321 322 321 322 322 321 321 321 318 323
336 336 340 338 338 338 340 340 341 342 341 341 341 340 335 331 327 325 324 323 323 323 325 325 323 330 329 328 327 326 326 325 324 318 315 321 321 320 322 321 322 321 321 320 320 320 321 320 318
337 335 335 338 338 339 339 341 341 341 342 341 341 336 330 326 325 325 323 324 323 322 323 323 319 329 329 327 327 326 325 323 322 321 316 321 318 319 321 321 320 320 319 320 320 320 320 319 321
335 338 338 339 339 339 339 341 342 342 342 341 339 332 327 327 326 326 324 323 322 320 321 321 317 323 328 327 326 325 323 322 322 322 315 316 313 312 320 321 320 319 319 320 321 320 320 320 321
335 337 338 339 341 341 342 342 342 342 342 340 335 330 329 328 328 328 327 325 319 315 320 320 319 321 320 325 324 323 322 322 322 321 321 316 314 317 320 320 319 319 321 322 321 320 320 320 320
338 337 337 338 341 342 341 342 342 343 342 340 334 331 329 329 329 329 328 324 322 315 314 321 321 316 320 323 323 321 322 322 321 322 321 318 318 317 321 320 318 320 321 320 319 315 319 320 320
336 336 336 337 342 341 342 342 344 343 342 341 337 332 331 330 330 329 327 325 323 315 313 318 322 320 317 322 322 319 321 321 322 322 320 316 317 318 319 320 317 319 320 319 317 311 316 320 320
339 339 344 338 341 341 336 344 344 343 343 342 339 334 333 332 332 332 329 328 327 321 313 312 313 318 320 321 322 322 320 321 322 322 321 313 316 314 318 319 317 318 319 318 316 311 315 319 317
338 345 344 342 340 338 338 341 343 342 343 341 340 338 334 333 333 332 331 331 328 325 319 314 311 317 321 322 322 321 321 322 322 322 319 316 315 313 314 317 316 316 317 317 312 311 315 316 316
339 343 341 343 339 338 339 341 342 342 342 341 341 340 336 335 334 332 331 331 328 328 327 315 311 318 320 321 322 321 322 322 322 321 320 320 314 312 312 314 312 318 317 316 313 311 315 315 314
337 335 339 339 336 334 336 344 344 342 342 342 341 341 340 338 336 333 332 332 331 330 331 323 311 315 320 319 319 319 321 321 321 321 321 320 316 312 311 314 314 316 316 316 311 311 311 311 312
333 334 333 334 336 333 337 342 343 341 341 341 341 341 342 340 337 335 333 332 332 331 332 329 313 310 315 320 320 322 322 322 321 321 321 319 319 318 317 312 315 315 316 314 310 312 312 312 313
334 334 334 340 337 337 337 337 345 341 340 340 341 341 341 339 338 337 334 334 333 333 332 331 318 312 313 321 319 323 323 323 322 321 320 319 320 319 318 315 314 313 314 314 311 311 312 312 311
335 334 335 335 340 341 339 338 345 342 341 340 339 340 339 339 340 339 336 335 334 334 333 331 325 314 312 314 318 321 322 322 323 322 320 320 320 319 318 318 312 314 313 314 314 313 312 311 313
334 335 335 336 338 339 340 338 344 341 342 339 339 340 340 339 340 340 337 336 335 334 333 329 326 318 314 312 313 318 319 321 322 319 322 319 320 319 318 318 313 314 313 313 314 314 312 312 312
334 338 339 337 338 341 340 339 344 342 342 340 340 340 340 339 340 340 338 336 336 335 333 328 327 323 317 314 315 315 313 317 319 321 321 319 319 320 319 318 313 314 316 314 315 315 314 313 312
333 335 337 337 345 346 340 341 339 336 334 333 340 341 339 339 339 340 338 336 336 335 331 328 327 324 321 318 318 319 314 321 322 324 322 319 319 320 319 318 315 314 316 314 314 315 314 313 313
335 335 335 338 341 337 339 342 339 334 334 334 335 341 338 336 339 339 338 336 335 333 332 329 327 324 323 321 320 320 317 317 321 322 321 318 319 320 319 318 317 316 315 316 315 314 314 313 314
336 334 335 338 336 337 336 341 335 335 336 335 335 335 337 336 338 337 335 335 334 334 333 331 328 325 323 322 320 320 320 319 317 318 319 319 318 318 318 317 318 316 316 315 315 315 314 314 314
333 334 338 337 337 339 338 339 336 336 338 335 336 335 336 337 338 337 336 335 335 334 333 332 328 324 323 323 321 321 322 321 321 321 320 320 320 318 319 318 317 318 316 315 315 315 315 314 314
334 339 338 339 336 340 342 336 335 334 334 334 333 335 335 333 338 338 337 336 335 333 333 332 328 325 324 323 323 322 321 321 320 321 321 321 320 320 319 319 318 317 318 316 315 315 315 314 314
335 336 336 340 339 337 338 336 337 334 334 335 335 335 335 335 337 338 337 336 334 334 332 332 329 327 323 324 323 323 322 321 322 322 322 321 322 320 318 319 319 318 317 317 317 317 317 316 315

GFSSGP_850_thetae_342.txt.gz
Theta_e
340 339 341 341 342 340 332 333 334 336 335 333 332 333 333 334 334 334 341 341 339 338 334 335 337 337 337 329 327 329 330 330 330 335 336 334 331 331 332 331 331 331 335 334 334 336 335 335 336
337 337 340 341 337 331 332 331 335 335 335 335 335 335 335 336 339 341 342 342 340 337 337 337 336 333 334 336 330 329 332 334 333 335 336 335 334 332 332 331 329 326 325 322 333 334 331 332 332
337 336 338 337 338 332 332 332 334 336 338 338 338 337 335 335 335 338 339 340 340 339 340 339 336 333 333 335 334 334 333 335 337 336 335 335 333 330 327 325 324 323 321 321 320 323 330 330 329
337 337 338 338 341 339 329 334 335 337 337 337 338 337 338 339 340 340 342 341 340 336 335 336 336 332 335 335 334 331 330 333 335 334 334 333 328 326 323 318 317 314 310 310 313 316 323 329 329
335 337 340 343 340 340 337 337 336 337 337 336 336 338 339 339 341 342 336 334 333 333 328 337 333 332 333 336 333 330 328 332 335 334 331 327 327 325 320 319 319 318 315 312 311 312 313 317 322
335 335 342 342 339 338 340 340 338 338 336 336 337 339 339 340 340 339 328 328 327 329 326 328 330 331 335 334 331 330 327 329 331 329 326 324 326 325 319 319 320 319 319 319 320 320 321 321 317
336 337 341 339 339 340 340 340 339 338 339 339 339 341 341 334 329 326 325 326 326 324 325 327 331 333 337 332 330 328 326 325 322 322 324 322 324 320 321 321 321 321 321 320 319 320 320 321 324
333 338 340 339 338 338 338 341 340 341 340 342 341 341 339 330 331 329 325 323 322 322 323 325 328 334 336 332 328 327 326 325 322 315 324 322 320 320 320 321 323 321 321 321 319 320 321 318 321
335 337 342 340 339 338 339 340 338 339 340 341 338 332 331 325 325 326 324 322 321 320 320 323 330 334 332 330 328 326 325 325 321 314 317 319 318 320 321 321 322 321 320 320 318 320 320 319 318
335 335 337 339 337 336 339 340 340 340 339 339 335 328 326 326 325 324 322 321 321 319 320 320 330 330 332 329 326 325 324 323 319 312 313 316 315 320 320 320 321 319 318 318 319 319 319 317 321
334 334 334 338 337 337 340 341 341 340 340 340 328 326 326 326 325 325 323 321 319 318 319 316 324 327 326 326 325 325 324 321 320 318 313 314 311 319 320 319 317 317 318 319 320 319 319 319 320
334 334 336 338 338 338 339 341 340 341 341 340 331 329 327 326 325 325 324 319 314 315 317 315 314 328 327 326 326 324 322 321 321 320 315 314 312 319 318 318 317 319 318 319 320 319 319 319 320
334 336 337 338 340 340 341 341 341 340 340 337 330 327 327 326 326 327 326 319 313 312 313 316 312 320 326 326 322 322 322 321 321 320 319 313 312 318 318 318 319 319 319 318 318 313 311 319 319
337 336 336 339 341 341 341 342 342 340 336 331 329 329 329 328 328 328 325 319 314 312 312 315 314 312 317 320 320 322 322 321 320 320 319 312 313 318 318 317 317 318 317 317 315 310 312 318 319
336 334 335 338 341 341 342 342 342 341 338 331 331 330 328 328 328 329 323 321 319 312 311 310 312 314 321 320 318 321 320 320 320 321 320 312 312 315 314 314 315 314 316 314 311 309 312 314 318
338 337 336 334 338 340 340 342 343 342 341 336 331 329 328 329 329 330 327 325 323 318 311 309 310 316 319 320 321 321 320 320 321 321 319 314 311 311 310 313 311 311 315 313 309 309 311 315 315
333 339 341 339 338 339 335 338 343 342 342 340 333 330 330 330 330 332 330 329 324 323 316 310 310 316 320 322 322 321 321 321 322 321 320 318 312 309 311 311 311 315 313 311 309 310 311 312 311
336 339 337 341 338 337 337 336 342 343 342 342 338 332 332 331 332 332 331 331 327 325 324 311 310 315 319 321 321 321 321 321 322 320 320 320 316 312 310 312 312 314 313 309 309 310 310 310 311
336 338 338 338 338 335 336 337 342 342 342 342 339 336 333 332 333 333 332 332 330 326 327 321 310 311 316 320 321 321 322 321 321 320 321 319 319 317 315 310 312 312 313 309 308 310 311 310 311
335 336 334 335 336 332 335 340 341 341 341 342 340 339 337 333 333 333 333 332 331 328 329 328 313 310 311 314 315 320 321 322 321 321 320 318 319 318 318 317 310 311 313 311 312 310 311 311 312
331 331 336 336 337 336 336 336 344 341 340 340 340 341 340 337 335 334 333 333 332 329 328 330 321 311 310 313 317 322 322 322 322 321 320 320 320 319 318 318 313 312 312 314 313 310 311 312 311
333 332 333 337 335 338 335 335 341 342 342 339 339 340 340 340 339 336 335 334 334 332 332 331 326 314 311 310 314 322 323 322 322 322 320 320 321 319 318 318 314 313 312 314 314 313 312 312 312
333 332 335 337 336 335 338 338 341 340 340 340 340 338 340 341 341 337 337 336 335 334 333 331 328 320 313 311 311 315 319 321 321 319 321 319 320 319 319 318 316 312 315 314 314 313 313 313 311
334 337 332 334 335 340 336 337 341 338 336 336 338 339 339 339 339 338 338 336 335 335 334 333 329 324 317 313 312 312 312 315 318 320 321 319 319 320 319 318 317 313 315 314 314 314 313 313 313
330 329 331 332 336 342 336 340 336 336 335 336 336 336 339 339 339 338 339 336 336 335 335 332 327 326 321 317 314 314 313 318 320 322 322 321 319 319 319 318 317 315 314 315 315 314 313 313 313
332 330 331 337 337 334 337 338 335 333 334 334 334 334 338 339 339 339 340 339 336 336 335 329 327 327 323 319 317 316 317 315 317 319 321 318 319 319 319 318 316 317 315 315 314 314 314 313 313
333 334 331 332 331 330 332 334 334 334 334 334 334 334 333 335 339 339 340 339 336 336 334 332 328 327 324 321 320 319 319 318 318 318 319 319 319 319 318 318 317 317 316 315 315 314 314 314 313
331 332 332 334 336 335 335 334 335 334 336 334 331 334 335 336 336 337 337 338 336 336 335 334 331 328 324 322 322 321 321 320 320 319 320 320 320 320 319 319 318 317 317 317 316 315 315 315 314
333 335 335 333 332 336 338 332 330 333 332 334 332 334 336 335 336 336 333 336 336 335 334 333 331 329 325 322 323 323 322 321 321 321 321 321 320 321 321 318 319 319 318 317 317 317 316 316 316
332 333 332 334 337 333 332 333 332 331 333 332 333 335 335 335 337 337 333 334 336 334 334 332 332 329 325 323 324 323 322 322 321 321 322 322 322 321 321 318 318 318 318 317 317 316 316 317 317

GFSSGP_850_thetae_345.txt.gz
Theta_e
337 338 340 340 336 328 330 334 333 335 333 332 333 333 335 336 334 333 340 339 336 335 337 336 334 335 335 331 328 328 330 331 331 333 335 335 334 333 332 331 329 327 325 324 327 327 330 332 333
336 337 338 339 332 329 330 330 335 334 333 335 334 334 335 337 338 340 340 340 337 338 339 336 334 334 334 333 332 334 335 335 336 335 335 335 333 331 328 326 324 323 322 321 321 324 329 328 327
337 338 338 334 335 330 331 332 333 334 335 337 337 336 335 336 338 338 340 340 339 339 339 337 334 332 334 335 333 332 330 332 335 334 334 333 331 327 324 318 314 313 310 310 314 315 319 327 328
336 338 337 337 341 338 329 332 336 336 336 336 337 337 339 337 337 338 341 340 338 336 335 336 333 332 333 334 333 330 328 328 331 333 333 330 327 324 319 316 317 315 311 311 312 313 314 319 326
336 337 337 339 339 340 336 335 335 336 335 336 337 338 340 341 342 341 340 340 340 332 334 336 330 330 333 334 332 329 324 327 331 332 330 327 325 324 318 319 320 320 317 317 320 319 320 317 317
334 335 340 339 339 337 339 338 337 335 336 338 338 338 338 342 338 334 332 333 336 328 326 328 328 332 335 333 330 327 326 323 322 325 325 323 324 324 318 320 321 321 320 318 325 324 320 321 323
334 335 340 338 338 339 339 340 338 338 338 338 339 340 330 342 336 327 327 326 326 324 324 325 327 332 335 331 328 327 326 324 321 316 323 322 320 319 320 320 322 323 320 321 318 319 319 319 322
335 336 338 337 337 338 338 340 339 340 340 340 341 339 331 331 327 326 325 323 321 319 321 322 326 333 334 331 328 327 325 324 321 313 319 321 320 319 320 320 322 321 320 320 319 319 318 317 317
336 335 338 338 336 336 338 339 339 338 341 338 336 340 328 324 324 324 324 322 318 316 319 321 326 332 331 329 329 326 324 323 318 310 313 317 317 318 320 320 320 320 319 318 318 318 318 317 319
334 331 335 336 336 335 338 338 339 340 339 335 331 333 325 324 323 323 321 318 315 313 315 318 328 333 332 329 325 324 323 322 316 312 314 315 312 318 319 319 318 317 316 318 318 318 318 318 320
332 334 333 337 337 338 339 339 340 338 339 332 327 326 325 324 325 324 320 316 312 312 314 314 327 328 330 326 325 324 322 320 317 315 312 311 310 314 318 317 315 316 317 318 318 318 317 318 319
334 333 336 337 337 338 339 340 340 340 340 335 331 328 325 325 325 323 320 315 312 312 312 312 316 327 326 325 325 324 322 319 318 317 313 311 311 316 317 316 316 318 318 318 316 314 310 316 319
334 335 335 337 338 338 340 340 340 340 340 331 327 326 327 326 325 325 323 317 313 311 311 313 313 324 327 326 325 322 320 320 319 318 315 311 311 314 315 314 314 316 316 313 314 310 310 312 318
335 335 335 336 337 338 339 340 340 339 340 330 329 329 329 329 328 327 324 318 315 311 311 312 312 313 324 325 322 319 320 319 318 319 318 312 311 312 314 312 312 312 312 312 311 308 309 311 316
335 334 333 337 340 340 341 342 341 338 338 331 328 330 330 330 329 328 326 320 318 312 310 310 310 311 314 317 317 320 319 317 320 321 319 314 310 309 310 311 310 309 312 312 308 308 309 312 315
337 334 335 336 339 340 339 341 341 335 333 329 329 330 331 330 329 329 329 324 321 317 311 310 309 311 314 317 319 320 320 320 321 321 319 317 310 308 309 309 309 311 311 308 308 309 310 311 311
331 335 338 337 336 339 337 339 339 338 334 330 330 330 331 329 329 329 329 328 325 320 318 310 309 312 316 318 319 321 320 321 321 321 320 319 314 311 309 309 310 311 311 308 308 310 310 310 310
332 336 335 338 336 338 340 337 341 341 340 339 331 331 330 330 331 330 330 330 330 323 323 315 310 313 317 319 320 321 320 321 321 321 320 319 317 317 315 312 310 310 311 308 308 310 310 310 314
332 336 336 335 335 337 337 338 337 342 341 341 340 333 329 330 331 330 331 331 331 329 323 325 311 311 314 318 321 320 321 321 320 320 321 319 319 318 317 317 311 310 311 311 308 309 310 310 315
335 336 334 334 335 336 333 335 338 340 341 341 341 339 334 331 330 331 331 332 332 332 326 328 319 310 312 315 319 320 321 321 322 321 321 319 319 319 318 318 314 311 311 313 310 310 311 311 311
333 332 333 333 336 336 334 333 340 340 341 341 341 341 339 336 333 332 332 333 333 333 329 329 328 315 311 313 315 317 320 321 322 321 320 320 320 320 318 318 316 312 312 313 312 312 311 312 312
331 328 334 336 333 336 331 333 333 341 340 340 340 340 340 340 339 337 334 333 334 334 331 329 331 324 312 312 314 317 320 322 322 321 321 320 319 320 318 318 317 312 313 313 314 313 312 311 311
331 331 334 335 334 333 336 333 335 338 338 335 339 341 340 340 339 339 338 336 336 334 333 330 331 327 318 312 312 314 320 321 320 321 319 320 319 319 319 318 317 314 313 313 314 313 313 313 313
332 334 326 331 331 336 335 335 335 337 334 334 334 335 335 338 340 339 339 337 335 335 335 332 332 329 323 314 312 312 314 313 316 320 319 320 319 319 319 318 317 317 314 314 314 314 313 313 313
328 327 330 333 333 336 334 338 332 332 333 333 333 334 333 336 337 339 339 338 334 334 336 334 333 331 326 319 315 314 314 312 315 317 320 321 321 319 319 319 318 317 317 314 315 314 314 313 313
331 329 331 337 334 332 335 338 333 331 332 333 333 334 334 334 337 337 337 336 338 335 328 333 333 332 327 323 319 317 318 316 315 315 317 317 316 318 318 317 317 317 317 316 314 314 314 314 313
333 332 329 330 330 329 329 332 328 333 333 332 334 335 335 335 335 337 338 337 337 335 335 335 334 331 328 325 322 320 320 319 318 317 318 319 318 319 319 318 318 318 317 317 316 315 315 315 314
331 330 331 327 333 335 331 333 331 332 333 332 333 334 333 335 335 337 338 338 338 336 337 335 333 334 329 326 323 322 322 320 320 320 320 320 320 320 320 320 318 318 319 318 317 317 316 316 315
331 332 332 327 328 333 336 331 325 331 330 330 333 333 333 335 334 335 337 338 336 335 336 336 335 334 330 326 323 323 323 322 321 321 321 321 321 321 321 320 319 317 318 318 318 317 317 317 317
330 331 329 329 332 331 330 331 331 330 330 332 333 333 333 333 333 334 336 337 334 333 336 336 335 334 331 327 324 324 323 322 321 321 321 321 321 321 320 319 318 317 317 318 319 318 318 318 318

GFSSGP_850_thetae_348.txt.gz
Theta_e
338 338 340 340 329 326 329 334 332 334 332 332 333 333 334 336 334 333 339 335 332 337 336 334 334 334 333 331 329 331 334 334 334 334 335 335 334 332 330 328 326 324 322 321 321 318 318 323 327
338 339 338 336 327 329 330 331 335 333 333 333 334 334 335 337 338 339 339 337 337 338 338 335 334 333 333 332 334 332 331 330 331 333 333 334 332 329 326 323 317 313 312 312 314 316 317 321 323
337 337 336 331 331 329 332 332 333 333 335 337 336 335 334 336 339 339 340 339 338 339 336 335 333 332 334 334 334 330 327 327 331 333 333 331 329 326 321 316 314 312 313 311 310 311 311 312 319
336 337 336 335 339 337 330 332 336 335 336 336 337 337 338 337 337 341 340 340 336 334 333 335 332 332 332 334 333 329 324 321 327 332 332 330 327 324 320 316 317 320 323 325 325 321 313 312 317
334 336 333 336 339 338 334 335 335 334 335 336 337 338 340 340 340 340 340 338 336 331 335 335 331 331 333 334 332 329 325 322 319 326 328 325 324 323 320 318 320 325 323 324 326 326 322 319 318
333 336 336 337 338 336 338 337 336 334 336 338 338 337 337 342 341 340 339 334 336 331 327 327 327 330 331 332 330 327 326 323 321 317 319 322 320 320 317 319 320 325 322 323 323 324 319 319 321
332 333 338 336 337 338 338 339 338 337 337 338 339 335 332 340 335 330 329 328 327 324 323 322 324 327 332 331 329 327 325 323 319 313 318 321 320 318 318 318 319 322 319 317 317 317 317 317 318
335 333 336 336 337 339 338 339 337 339 339 340 338 332 333 340 328 327 327 324 322 318 317 318 322 328 333 330 328 327 324 323 317 311 315 319 319 318 319 319 319 319 319 318 317 317 317 316 316
336 333 335 336 336 335 338 339 339 338 340 337 335 336 336 339 326 327 326 323 316 313 314 316 321 329 333 330 328 326 324 322 317 311 312 313 314 316 317 318 318 318 317 316 318 318 317 317 317
333 329 334 334 333 333 337 338 338 339 338 330 335 333 329 327 326 326 324 317 313 311 312 313 315 328 333 330 327 324 323 321 317 314 311 311 310 312 316 317 316 314 315 316 317 318 318 317 318
332 334 331 336 336 336 337 337 339 338 337 332 333 329 327 326 325 324 321 315 312 311 311 311 314 328 332 331 325 324 323 320 318 315 312 310 311 312 315 314 314 315 316 316 315 315 314 313 317
334 332 334 336 336 337 338 338 339 339 339 338 335 334 327 325 324 324 322 316 313 311 311 311 311 322 327 326 325 324 322 319 318 315 314 311 310 311 313 313 312 313 315 313 310 312 309 310 316
334 334 335 336 336 338 339 339 339 338 339 339 331 329 328 326 325 324 324 319 315 311 311 311 311 317 323 325 325 324 320 318 316 317 315 311 309 310 312 311 311 311 310 311 311 308 308 311 314
334 333 334 336 336 338 339 339 339 340 338 335 329 329 329 329 328 326 326 323 317 313 310 310 311 311 317 323 324 322 318 317 317 319 318 314 310 309 309 309 310 309 311 310 308 308 308 310 313
334 334 332 336 336 338 339 340 340 340 338 334 330 330 331 330 328 329 328 328 322 317 312 310 310 310 312 319 319 316 317 318 320 320 319 317 310 308 308 310 310 311 310 308 308 309 309 310 312
334 331 336 333 338 339 339 342 339 339 335 330 331 332 333 332 332 330 329 329 327 322 317 311 310 310 313 316 316 318 319 319 320 321 319 319 315 312 310 309 309 309 310 307 307 309 309 310 310
328 333 335 337 337 339 337 339 335 338 333 329 332 334 333 331 331 331 331 329 329 327 320 317 310 309 314 316 318 319 319 320 320 321 320 319 317 316 316 313 309 310 310 309 307 309 309 310 312
328 334 334 336 334 338 340 341 337 337 331 331 333 335 334 333 335 333 331 330 329 330 325 321 316 310 312 316 318 319 319 320 320 321 320 320 318 318 317 317 313 310 310 311 308 309 310 310 316
328 332 334 332 334 338 339 340 335 339 337 334 331 333 334 335 335 334 331 330 329 330 330 322 323 311 311 314 316 319 319 320 320 320 320 320 318 319 318 317 316 311 311 312 310 308 310 310 314
333 334 334 333 334 335 334 334 335 337 340 339 339 336 336 336 336 334 331 329 330 331 330 326 326 321 311 312 315 319 319 320 321 321 321 320 319 319 319 318 317 313 312 313 312 311 310 311 312
332 333 332 334 335 334 330 330 333 338 340 341 341 341 340 340 339 337 333 332 330 331 331 330 327 327 316 311 313 316 319 319 320 321 321 320 320 319 319 318 317 314 312 313 313 312 312 311 310
331 328 332 335 332 334 328 333 330 336 336 339 340 341 341 341 341 340 339 337 332 332 332 332 329 330 323 313 312 315 316 319 321 321 321 321 319 319 319 318 317 315 313 313 313 313 312 312 312
330 331 332 333 333 332 333 332 333 335 334 333 333 339 340 340 340 339 340 340 334 332 333 333 330 330 327 318 313 315 316 319 321 320 320 319 319 319 319 319 318 317 316 314 314 314 313 313 313
331 329 325 327 328 332 333 334 334 333 333 331 332 333 332 333 333 335 336 334 333 332 335 326 332 331 330 323 316 313 315 317 317 316 318 318 320 320 320 319 319 318 317 316 314 314 313 314 313
327 326 330 332 331 332 330 337 333 330 330 332 332 333 333 334 335 335 336 334 335 336 334 326 327 332 331 327 320 316 315 315 314 316 317 318 318 318 317 318 318 317 317 317 315 314 314 314 314
330 328 329 335 332 330 329 338 332 330 332 332 333 334 334 333 333 334 336 335 335 335 335 330 327 332 332 329 323 320 318 318 318 317 316 317 317 317 318 318 318 317 317 317 316 316 315 315 315
331 330 327 327 326 328 326 328 326 332 331 333 333 334 333 332 332 334 335 335 335 336 335 333 331 334 333 329 326 322 321 321 320 320 319 319 319 319 319 319 320 318 318 318 318 317 316 316 316
329 327 330 325 331 333 329 331 330 331 331 332 332 332 332 331 333 334 335 336 336 336 336 335 335 334 334 330 327 324 323 322 321 321 320 321 321 320 321 320 320 320 318 317 317 318 317 317 317
330 330 328 324 326 332 334 331 325 330 329 330 331 332 331 332 333 334 334 335 336 336 336 337 336 335 334 331 328 325 323 323 322 321 321 321 321 321 321 321 321 320 319 318 318 318 318 318 318
328 329 326 328 329 329 329 331 330 330 330 330 331 332 331 331 332 335 335 335 335 334 334 335 336 335 334 331 329 325 324 324 323 321 320 321 321 321 321 320 319 319 319 320 320 320 320 320 320